Weather History for KONZ - March, 2014

Change the Weather History Date:

Monday, March 3, 2014

  Actual Average (KDTW) Record (KDTW)
Temperature  
Mean Temperature 4 °F 32 °F  
Max Temperature 10 °F 40 °F 67 °F (1974)
Min Temperature -2 °F 24 °F -4 °F (2003)
Degree Days  
Heating Degree Days 61 33  
Month to date heating degree days 99  
Since 1 July heating degree days 4652  
Cooling Degree Days 0 0  
Month to date cooling degree days 0  
Year to date cooling degree days 0  
Moisture  
Dew Point -5 °F    
Average Humidity 63    
Maximum Humidity 85    
Minimum Humidity 44    
Precipitation  
Precipitation 0.00 in 0.07 in 1.71 in (1953)
Month to date precipitation 0.22  
Year to date precipitation 4.20  
Snow  
Snow 0.00 in 0.30 in 1.50 in (1978)
Month to date snowfall 0.9  
Since 1 July snowfall 34.8  
Snow Depth -    
Sea Level Pressure  
Sea Level Pressure 30.40 in    
Wind  
Wind Speed 7 mph (ENE)    
Max Wind Speed 14 mph    
Max Gust Speed 20 mph    
Visibility 10 miles    
Events      
T = Trace of Precipitation, MM = Missing Value Source: NWS Daily Summary

Daily Weather History Graph

Daily Weather History Graph

Search for Another Location

Airport or City:

Trip Planner

Search our weather history database for the weather conditions in past years. The results will help you decide how hot, cold, wet, or windy it might be!

Date:

Astronomy

Mar. 03, 2014 Rise Set
Actual Time 7:04 AM EST 6:25 PM EST
Civil Twilight 6:36 AM EST 6:53 PM EST
Nautical Twilight 6:04 AM EST 7:25 PM EST
Astronomical Twilight 5:31 AM EST 7:58 PM EST
Moon 8:08 AM EST (3/3) 9:30 PM EST (3/3)
Length of Visible Light 12h 16m
Length of Day
11h 20m
Waxing Crescent, 8% of the Moon is Illuminated
Mar 3
Waxing Crescent
Mar 8
First Quarter
Mar 16
Full
Mar 23
Last Quarter
Mar 30
New

Hourly Weather History & Observations

Time (EST) Temp. Windchill Dew Point Humidity Pressure Visibility Wind Dir Wind Speed Gust Speed Precip Events Conditions
12:14 AM 8.6 °F 2.0 °F 1.4 °F 73% 30.31 in 10.0 mi NNW 3.5 mph - N/A   Clear
12:34 AM 8.6 °F 0.1 °F -0.4 °F 67% 30.32 in 10.0 mi NNW 4.6 mph - N/A   Clear
12:54 AM 8.6 °F -3.7 °F -2.2 °F 62% 30.32 in 10.0 mi NNW 8.1 mph - N/A   Clear
1:14 AM 8.6 °F -7.0 °F -2.2 °F 62% 30.33 in 10.0 mi NNW 12.7 mph - N/A   Clear
1:35 AM 8.6 °F -7.0 °F -2.2 °F 62% 30.33 in 10.0 mi NNW 12.7 mph - N/A   Clear
1:54 AM 8.6 °F -6.3 °F -4.0 °F 57% 30.34 in 10.0 mi North 11.5 mph 17.3 mph N/A   Clear
2:14 AM 8.6 °F -5.5 °F -5.8 °F 52% 30.33 in 10.0 mi North 10.4 mph 16.1 mph N/A   Clear
2:34 AM 6.8 °F -5.9 °F -5.8 °F 56% 30.34 in 10.0 mi North 8.1 mph - N/A   Clear
2:54 AM 6.8 °F -6.9 °F -7.6 °F 52% 30.34 in 10.0 mi North 9.2 mph - N/A   Clear
3:14 AM 6.8 °F -8.6 °F -9.4 °F 48% 30.34 in 10.0 mi North 11.5 mph - N/A   Clear
3:34 AM 6.8 °F -8.6 °F -7.6 °F 52% 30.33 in 10.0 mi North 11.5 mph - N/A   Clear
3:54 AM 6.8 °F -10.0 °F -11.2 °F 44% 30.32 in 10.0 mi North 13.8 mph 19.6 mph N/A   Clear
4:14 AM 5.0 °F -9.1 °F -11.2 °F 47% 30.33 in 10.0 mi North 9.2 mph - N/A   Clear
4:34 AM 5.0 °F -10.0 °F -11.2 °F 47% 30.34 in 10.0 mi North 10.4 mph - N/A   Clear
4:54 AM 3.2 °F -10.3 °F -11.2 °F 51% 30.35 in 10.0 mi North 8.1 mph - N/A   Clear
5:14 AM 3.2 °F -9.1 °F -11.2 °F 51% 30.36 in 10.0 mi NNE 6.9 mph - N/A   Clear
5:34 AM 3.2 °F -6.2 °F -9.4 °F 56% 30.37 in 10.0 mi NNE 4.6 mph - N/A   Clear
5:54 AM 3.2 °F -7.8 °F -9.4 °F 56% 30.38 in 10.0 mi North 5.8 mph - N/A   Clear
6:14 AM 1.4 °F -9.9 °F -9.4 °F 61% 30.37 in 10.0 mi NNE 5.8 mph - N/A   Clear
6:34 AM 1.4 °F -8.3 °F -9.4 °F 61% 30.38 in 10.0 mi North 4.6 mph - N/A   Clear
6:54 AM 1.4 °F - -9.4 °F 61% 30.38 in 10.0 mi Calm Calm - N/A   Clear
7:14 AM 1.4 °F -6.2 °F -9.4 °F 61% 30.39 in 10.0 mi North 3.5 mph - N/A   Clear
7:34 AM 1.4 °F -6.2 °F -9.4 °F 61% 30.39 in 10.0 mi North 3.5 mph - N/A   Clear
7:54 AM 1.4 °F -8.3 °F -9.4 °F 61% 30.40 in 10.0 mi North 4.6 mph - N/A   Clear
8:14 AM 1.4 °F -9.9 °F -9.4 °F 61% 30.41 in 10.0 mi North 5.8 mph - N/A   Clear
8:34 AM 3.2 °F -12.2 °F -7.6 °F 61% 30.42 in 10.0 mi NNE 10.4 mph - N/A   Clear
8:54 AM 3.2 °F -9.1 °F -5.8 °F 66% 30.43 in 10.0 mi NNE 6.9 mph - N/A   Clear
9:15 AM 5.0 °F -9.1 °F -5.8 °F 61% 30.43 in 10.0 mi NNE 9.2 mph - N/A   Clear
9:34 AM 5.0 °F -8.1 °F -5.8 °F 61% 30.43 in 10.0 mi NNE 8.1 mph - N/A   Clear
9:54 AM 5.0 °F -10.0 °F -5.8 °F 61% 30.44 in 7.0 mi NE 10.4 mph - N/A   Clear
10:15 AM 6.8 °F -7.8 °F -5.8 °F 56% 30.43 in 10.0 mi NNE 10.4 mph - N/A   Clear
10:34 AM 6.8 °F -6.9 °F -5.8 °F 56% 30.44 in 10.0 mi NE 9.2 mph - N/A   Clear
10:54 AM 6.8 °F -6.9 °F -5.8 °F 56% 30.45 in 10.0 mi NE 9.2 mph - N/A   Clear
11:14 AM 6.8 °F -3.5 °F -5.8 °F 56% 30.45 in 10.0 mi ENE 5.8 mph - N/A   Clear
11:34 AM 8.6 °F -2.6 °F -5.8 °F 52% 30.45 in 10.0 mi ENE 6.9 mph - N/A   Clear
11:54 AM 8.6 °F -3.7 °F -5.8 °F 52% 30.46 in 10.0 mi ENE 8.1 mph - N/A   Clear
12:14 PM 8.6 °F -1.3 °F -5.8 °F 52% 30.45 in 10.0 mi East 5.8 mph - N/A   Clear
12:34 PM 8.6 °F -1.3 °F -5.8 °F 52% 30.45 in 10.0 mi East 5.8 mph - N/A   Clear
12:54 PM 10.4 °F 2.2 °F -4.0 °F 52% 30.45 in 10.0 mi East 4.6 mph - N/A   Clear
1:14 PM 10.4 °F 0.8 °F -4.0 °F 52% 30.45 in 10.0 mi SE 5.8 mph - N/A   Clear
1:34 PM 10.4 °F 2.2 °F -4.0 °F 52% 30.45 in 10.0 mi SSE 4.6 mph - N/A   Scattered Clouds
1:54 PM 10.4 °F 2.2 °F -4.0 °F 52% 30.45 in 10.0 mi South 4.6 mph - N/A   Scattered Clouds
2:14 PM 10.4 °F -1.5 °F -2.2 °F 57% 30.44 in 10.0 mi South 8.1 mph - N/A   Mostly Cloudy
2:34 PM 8.6 °F -3.7 °F -2.2 °F 62% 30.44 in 10.0 mi South 8.1 mph - N/A   Scattered Clouds
2:53 PM 8.6 °F -2.6 °F -2.2 °F 62% 30.44 in 10.0 mi South 6.9 mph - N/A   Clear
3:14 PM 8.6 °F -4.7 °F -2.2 °F 62% 30.45 in 10.0 mi South 9.2 mph - N/A   Clear
3:34 PM 8.6 °F -1.3 °F -2.2 °F 62% 30.45 in 10.0 mi South 5.8 mph - N/A   Clear
3:54 PM 8.6 °F -3.7 °F -2.2 °F 62% 30.45 in 10.0 mi South 8.1 mph - N/A   Clear
4:14 PM 8.6 °F -1.3 °F -2.2 °F 62% 30.45 in 10.0 mi South 5.8 mph - N/A   Clear
4:35 PM 8.6 °F -1.3 °F -2.2 °F 62% 30.44 in 10.0 mi South 5.8 mph - N/A   Clear
4:54 PM 8.6 °F -1.3 °F -2.2 °F 62% 30.44 in 10.0 mi SSE 5.8 mph - N/A   Clear
5:14 PM 8.6 °F -2.6 °F -2.2 °F 62% 30.44 in 10.0 mi SSE 6.9 mph - N/A   Clear
5:34 PM 6.8 °F -3.5 °F -2.2 °F 67% 30.44 in 10.0 mi South 5.8 mph - N/A   Clear
5:54 PM 6.8 °F -4.8 °F -4.0 °F 61% 30.44 in 10.0 mi SSE 6.9 mph - N/A   Clear
6:14 PM 6.8 °F -3.5 °F -4.0 °F 61% 30.44 in 10.0 mi South 5.8 mph - N/A   Clear
6:34 PM 3.2 °F -7.8 °F -4.0 °F 72% 30.44 in 10.0 mi South 5.8 mph - N/A   Clear
6:54 PM 3.2 °F -7.8 °F -2.2 °F 78% 30.44 in 10.0 mi South 5.8 mph - N/A   Clear
7:14 PM 3.2 °F -7.8 °F -2.2 °F 78% 30.43 in 10.0 mi SSW 5.8 mph - N/A   Clear
7:34 PM 3.2 °F -4.2 °F -2.2 °F 78% 30.43 in 10.0 mi South 3.5 mph - N/A   Clear
7:54 PM 3.2 °F -4.2 °F -2.2 °F 78% 30.43 in 10.0 mi SSW 3.5 mph - N/A   Clear
8:14 PM -0.4 °F - -5.8 °F 78% 30.42 in 10.0 mi Calm Calm - N/A   Clear
8:34 PM -0.4 °F -8.3 °F -5.8 °F 78% 30.41 in 10.0 mi SSW 3.5 mph - N/A   Clear
8:54 PM -2.2 °F -10.4 °F -5.8 °F 85% 30.42 in 10.0 mi South 3.5 mph - N/A   Clear
9:14 PM 3.2 °F - -0.4 °F 85% 30.42 in 10.0 mi Calm Calm - N/A   Clear
9:34 PM 1.4 °F - -5.8 °F 72% 30.41 in 10.0 mi Calm Calm - N/A   Clear
9:54 PM -0.4 °F - -5.8 °F 78% 30.40 in 10.0 mi Calm Calm - N/A   Clear
10:15 PM -0.4 °F - -5.8 °F 78% 30.40 in 10.0 mi Calm Calm - N/A   Clear
10:34 PM -0.4 °F - -5.8 °F 78% 30.41 in 10.0 mi Calm Calm - N/A   Clear
10:54 PM -0.4 °F -10.4 °F -5.8 °F 78% 30.40 in 10.0 mi South 4.6 mph - N/A   Clear
11:14 PM -0.4 °F -8.3 °F -5.8 °F 78% 30.39 in 10.0 mi SSE 3.5 mph - N/A   Clear
11:34 PM -0.4 °F - -4.0 °F 85% 30.39 in 10.0 mi Calm Calm - N/A   Clear
11:54 PM -0.4 °F -10.4 °F -4.0 °F 85% 30.40 in 10.0 mi SW 4.6 mph - N/A   Clear